Temp
4 4 3 3 4 4 4 4 2 2 2 1 2 2 2 2 2 1 1 0 0 0 0 1 0 0 1
3 3 3 3 3 3 3 2 2 1 1 0 1 2 2 2 2 2 1 1 -0 -1 -1 -1 -1 -0 -0
3 2 2 2 2 2 2 1 1 1 -0 -0 -0 1 1 1 1 1 0 -0 -1 -1 -1 -1 -1 -1 -1
4 2 2 1 2 1 0 0 0 -0 -0 0 -0 0 0 -0 0 -0 -0 -1 -1 -2 -2 -2 -3 -3 -3
2 1 0 0 1 0 0 -0 -0 -0 -0 -0 -1 -0 -0 -1 -1 -1 -1 -1 -2 -3 -3 -3 -3 -3 -4
1 0 0 0 -0 1 0 -1 -2 -1 -1 -1 -1 -1 -1 -1 -1 -1 -2 -2 -3 -3 -3 -3 -4 -4 -4
4 2 0 1 -0 0 -0 -1 -0 0 -1 -1 -1 -1 -1 -1 -2 -2 -2 -3 -4 -3 -4 -4 -4 -4 -4
4 4 3 1 2 0 0 -0 -1 -0 -1 -1 -1 -1 -2 -2 -3 -3 -3 -4 -4 -4 -4 -4 -5 -5 -5
3 3 2 2 1 -1 -2 -2 -2 -2 -2 -1 -2 -2 -2 -2 -2 -3 -3 -4 -4 -4 -4 -5 -5 -5 -5
0 0 0 -0 -1 -1 -1 -1 -2 -3 -2 -2 -3 -3 -3 -3 -3 -3 -4 -4 -5 -5 -5 -5 -6 -6 -6
-1 -2 -2 -2 -2 -1 0 0 -2 -2 -2 -3 -4 -4 -3 -4 -4 -4 -4 -5 -5 -5 -5 -5 -5 -6 -6
-3 -3 -3 -2 -2 -2 -2 -1 -1 -1 -1 -3 -3 -3 -4 -5 -5 -5 -5 -5 -5 -5 -5 -6 -6 -7 -7
-4 -4 -3 -3 -3 -4 -3 -3 -3 -3 -3 -4 -4 -4 -5 -5 -5 -6 -7 -6 -6 -6 -6 -6 -7 -7 -7
-4 -4 -4 -4 -5 -4 -4 -4 -4 -5 -5 -5 -5 -5 -6 -6 -7 -7 -7 -8 -7 -7 -8 -7 -7 -7 -8
-4 -4 -5 -5 -5 -5 -5 -5 -5 -5 -5 -6 -6 -7 -7 -7 -8 -7 -7 -7 -7 -8 -8 -9 -8 -8 -8
-4 -5 -5 -6 -5 -6 -5 -5 -5 -5 -6 -6 -7 -8 -8 -8 -8 -7 -7 -7 -7 -8 -8 -9 -9 -9 -9
-4 -5 -5 -5 -6 -6 -6 -6 -6 -6 -6 -7 -7 -8 -10 -11 -8 -9 -8 -8 -8 -8 -8 -9 -10 -10 -10
Height
898 902 905 908 912 915 918 920 921 922 923 924 925 926 926 926 927 927 928 929 930 931 930 930 929 928 926
891 896 900 904 909 913 915 918 919 921 923 924 924 925 925 926 927 927 927 927 928 928 929 929 927 927 926
882 888 895 900 904 910 913 916 917 919 921 922 922 923 923 924 925 926 926 927 925 926 927 926 926 925 924
877 885 891 896 901 904 910 913 915 915 918 920 920 921 921 922 923 924 924 926 924 924 924 925 924 923 922
871 877 888 892 893 900 905 909 913 913 915 917 919 919 920 921 921 921 922 923 923 922 922 922 921 920 919
865 866 874 881 886 891 899 904 910 910 912 914 916 917 919 919 919 919 920 919 919 920 919 919 918 917 916
857 861 866 872 878 885 889 894 899 904 907 910 912 914 916 916 917 917 916 917 916 917 916 918 916 914 912
856 858 863 870 876 882 885 892 899 901 904 907 909 910 912 913 914 913 913 913 914 913 914 914 913 912 909
857 859 863 868 874 878 882 889 894 898 901 904 906 908 909 908 908 909 910 911 910 910 911 910 909 908 905
854 858 861 865 870 874 878 883 890 894 897 901 902 905 905 903 904 905 906 907 907 905 905 905 903 901 900
849 854 858 863 867 872 876 880 884 888 890 895 897 899 902 902 902 903 903 903 903 903 902 900 899 899 897
846 851 856 861 865 870 874 878 882 886 888 891 893 895 897 899 900 900 901 900 899 896 896 895 894 895 892
844 848 853 858 863 868 872 876 879 883 886 887 890 892 894 895 895 896 897 895 894 892 891 892 890 888 887
840 846 852 857 862 866 870 873 877 880 883 886 887 889 890 891 891 890 891 892 890 889 889 887 885 886 885
837 844 850 855 859 863 867 872 874 877 880 883 885 886 887 888 888 886 885 884 886 886 885 883 882 879 878
835 841 847 852 856 861 865 868 871 874 876 879 880 883 882 884 884 884 882 880 880 881 880 879 877 876 873
831 837 843 847 853 858 862 865 868 871 873 875 877 878 879 879 879 881 878 876 874 876 875 874 871 870 868
Wind_Speed
21 20 28 25 23 20 18 18 18 14 12 12 11 9 8 7 6 6 5 4 3 2 2 2 3 4 5
22 28 30 27 24 21 19 19 17 14 13 11 10 9 8 7 6 5 4 4 3 1 1 0 2 3 4
18 31 31 29 26 22 20 18 16 16 13 11 9 9 8 7 6 5 5 5 4 3 2 1 1 2 3
17 30 32 29 27 25 23 20 21 19 15 12 11 10 8 8 7 7 6 6 5 4 3 2 2 3 4
25 24 27 30 33 28 25 24 21 19 16 15 12 11 10 9 9 6 6 7 5 6 5 3 4 5 6
23 26 28 30 33 35 28 25 11 20 18 17 14 13 11 11 9 8 8 6 8 7 6 6 6 7 9
35 33 31 38 36 36 33 30 18 11 22 17 17 14 13 12 10 8 6 10 9 8 6 6 8 10 11
29 30 28 33 34 32 31 26 16 12 19 10 16 15 13 14 12 10 7 12 10 8 7 9 12 11 12
17 19 22 21 29 28 27 26 11 13 17 11 12 15 13 14 14 12 8 13 11 10 10 11 11 12 14
19 19 19 21 23 27 29 27 16 9 18 15 12 12 6 11 12 13 12 12 11 10 10 12 12 13 15
25 25 24 25 26 27 27 27 23 12 14 20 14 12 7 4 10 12 13 14 15 16 15 17 14 11 15
32 30 30 27 25 23 22 21 21 19 13 16 7 14 10 5 6 7 10 12 16 16 12 16 12 10 11
28 28 28 26 24 22 20 18 16 13 13 14 13 11 13 10 6 8 11 8 16 11 5 15 18 17 17
29 29 26 23 22 21 20 17 15 13 13 12 11 12 13 14 14 17 17 11 9 17 18 16 15 15 16
30 29 26 24 23 20 17 17 13 16 16 13 11 11 11 12 15 17 18 19 19 17 16 17 17 18 20
29 29 27 25 22 20 18 19 19 15 13 12 12 12 11 14 17 19 17 16 15 14 16 20 25 25 24
29 27 25 23 21 23 21 19 18 17 15 13 15 15 12 3 11 14 17 16 15 18 20 22 27 29 25
Wind_Direction
203 197 195 203 201 200 200 196 184 177 175 170 178 172 171 172 168 155 147 138 130 115 86 75 46 36 28
185 186 197 197 197 195 191 189 190 176 169 171 175 184 189 192 195 196 196 194 187 211 194 129 16 9 7
168 187 186 189 184 190 188 187 188 179 176 178 182 194 194 201 205 211 214 223 216 208 205 214 326 350 346
175 180 184 183 190 182 185 190 185 191 199 198 197 205 203 213 219 222 222 230 228 222 191 207 283 330 337
170 168 181 183 188 186 184 184 195 205 206 209 210 217 218 219 227 227 239 239 219 201 222 253 285 314 330
175 172 184 188 185 188 184 177 190 212 213 218 221 224 226 232 242 256 266 225 201 228 243 269 293 311 313
198 186 180 192 188 188 190 189 195 201 206 214 218 226 232 237 247 259 273 198 219 242 266 293 307 300 302
211 200 204 201 199 196 193 194 197 198 198 204 216 223 227 227 238 258 257 212 234 257 276 291 298 297 302
204 198 192 196 196 196 186 181 173 190 197 209 210 214 222 231 243 252 232 224 247 261 273 287 292 299 294
179 184 193 194 199 200 191 179 175 183 208 204 200 203 222 236 236 233 230 235 238 249 269 284 294 295 296
177 171 173 177 187 197 203 200 191 198 200 196 201 205 222 202 223 233 239 245 261 272 279 286 291 293 301
163 163 168 170 175 182 190 198 208 218 216 202 206 209 211 216 245 243 240 255 275 284 284 290 286 284 284
167 174 183 181 179 184 194 200 204 206 205 211 221 226 225 228 241 259 286 281 294 283 256 296 297 296 300
169 177 176 174 178 184 179 182 185 188 203 217 226 233 239 247 257 267 276 280 277 291 297 297 302 302 305
175 175 175 179 182 184 188 188 193 203 212 218 229 242 253 261 263 269 280 284 293 302 307 308 307 311 312
179 179 180 185 189 193 200 203 209 212 214 217 225 241 256 275 270 274 277 284 297 304 303 303 305 313 314
183 188 190 193 192 198 204 212 220 227 233 232 235 235 221 230 268 258 268 285 297 297 300 301 301 307 310